Moses Lake, WA

12:12 PM PST on February 08, 2016 (GMT -0800)
Grant County International

Weather History for KMWH - November, 2014

Change the Weather History Date:

Monday, November 10, 2014

  Actual Average Record
Temperature  
Mean Temperature 42 °F 40 °F  
Max Temperature 50 °F 49 °F 57 °F (2007)
Min Temperature 34 °F 30 °F 19 °F (2000)
Degree Days  
Heating Degree Days 23 25  
Month to date heating degree days 163 236  
Since 1 July heating degree days 511 873  
Cooling Degree Days 0 0  
Month to date cooling degree days 0 0  
Year to date cooling degree days 952 615  
Moisture  
Dew Point 25 °F    
Average Humidity 49    
Maximum Humidity 64    
Minimum Humidity 34    
Precipitation  
Precipitation 0.00 in 0.04 in 0.09 in (2007)
Month to date precipitation 0.22 0.38  
Year to date precipitation 5.46 6.85  
Sea Level Pressure  
Sea Level Pressure 30.17 in    
Wind  
Wind Speed 7 mph (North)    
Max Wind Speed 16 mph    
Max Gust Speed 20 mph    
Visibility 10 miles    
Events      
T = Trace of Precipitation, MM = Missing Value Source: NWS Daily Summary

Daily Weather History Graph

Daily Weather History Graph

Search for Another Location

Airport or City:

Trip Planner

Search our weather history database for the weather conditions in past years. The results will help you decide how hot, cold, wet, or windy it might be!

Date:

Astronomy

Nov. 10, 2014 Rise Set
Actual Time 6:54 AM PST 4:27 PM PST
Civil Twilight 6:21 AM PST 5:00 PM PST
Nautical Twilight 5:44 AM PST 5:37 PM PST
Astronomical Twilight 5:08 AM PST 6:13 PM PST
Moon 7:57 PM PST (11/10) 10:22 AM PST (11/10)
Length of Visible Light 10h 39m
Length of Day
9h 33m
Waning Gibbous, 84% of the Moon is Illuminated
Nov 10
Waning Gibbous
Nov 14
Last Quarter
Nov 22
New
Nov 29
First Quarter
Dec 6
Full

Hourly Weather History & Observations

Time (PST) Temp. Windchill Dew Point Humidity Pressure Visibility Wind Dir Wind Speed Gust Speed Precip Events Conditions
12:52 AM 37.4 °F 30.8 °F 26.6 °F 65% 29.95 in 10.0 mi North 9.2 mph - N/A   Clear
1:52 AM 41.0 °F 34.7 °F 26.1 °F 55% 29.99 in 10.0 mi NW 10.4 mph - N/A   Clear
2:52 AM 42.1 °F 35.7 °F 25.0 °F 51% 30.03 in 10.0 mi NNW 11.5 mph - N/A   Clear
3:52 AM 39.9 °F 34.5 °F 25.0 °F 55% 30.06 in 10.0 mi North 8.1 mph - N/A   Clear
4:52 AM 37.9 °F 29.6 °F 26.1 °F 62% 30.10 in 10.0 mi NNW 13.8 mph - N/A   Partly Cloudy
5:52 AM 39.0 °F 34.0 °F 27.0 °F 62% 30.13 in 10.0 mi NNE 6.9 mph - N/A   Overcast
6:52 AM 37.9 °F 34.4 °F 27.0 °F 65% 30.17 in 10.0 mi NE 4.6 mph - N/A   Scattered Clouds
7:52 AM 42.1 °F - 28.0 °F 58% 30.20 in 10.0 mi Calm Calm - N/A   Clear
8:52 AM 44.1 °F - 28.0 °F 53% 30.22 in 10.0 mi Calm Calm - N/A   Clear
9:52 AM 45.0 °F 43.5 °F 26.1 °F 48% 30.22 in 10.0 mi Variable 3.5 mph - N/A   Partly Cloudy
10:52 AM 46.0 °F 44.8 °F 25.0 °F 44% 30.21 in 10.0 mi ESE 3.5 mph - N/A   Clear
11:52 AM 48.0 °F - 25.0 °F 41% 30.34 in 10.0 mi Variable 5.8 mph - N/A   Scattered Clouds
12:52 PM 48.0 °F - 24.1 °F 39% 30.19 in 10.0 mi SW 8.1 mph - N/A   Clear
1:52 PM 48.9 °F - 24.1 °F 38% 30.17 in 10.0 mi SSW 5.8 mph - N/A   Clear
2:52 PM 48.9 °F - 23.0 °F 36% 30.32 in 10.0 mi West 5.8 mph - N/A   Scattered Clouds
3:52 PM 46.9 °F - 19.0 °F 33% 30.18 in 10.0 mi North 9.2 mph - N/A   Scattered Clouds
4:52 PM 44.1 °F 41.5 °F 23.0 °F 43% 30.18 in 10.0 mi NE 4.6 mph - N/A   Mostly Cloudy
5:52 PM 44.6 °F 40.2 °F 23.0 °F 43% 30.17 in 10.0 mi North 8.1 mph - N/A   Overcast
6:52 PM 42.1 °F 37.7 °F 26.1 °F 53% 30.20 in 10.0 mi NNE 6.9 mph - N/A   Overcast
7:52 PM 41.0 °F 35.8 °F 26.1 °F 55% 30.20 in 10.0 mi North 8.1 mph - N/A   Overcast
8:52 PM 41.0 °F 35.2 °F 25.0 °F 53% 30.21 in 10.0 mi North 9.2 mph - N/A   Overcast
9:52 PM 39.9 °F 33.4 °F 21.0 °F 47% 30.22 in 10.0 mi North 10.4 mph - N/A   Overcast
10:52 PM 35.1 °F 26.9 °F 21.9 °F 59% 30.23 in 10.0 mi NNE 11.5 mph - N/A   Overcast
11:52 PM 34.0 °F 26.0 °F 23.0 °F 64% 30.25 in 10.0 mi NE 10.4 mph - N/A   Clear